This is the latest recevied weather packets stored in our database for station/object KE8WMS. If no packets are shown the sender has not sent any weather packets the latest 10 day(s).
| Time | Temp. | Humidity | Pressure | Rain* | Wind** | Luminosity | Snow |
|---|---|---|---|---|---|---|---|
| 1787779376 | 26.67° C | 58% | 1009.2 hPa | 0 mm | - | 294 W/m² | - |
| 1787779072 | 27.22° C | 59% | 1009 hPa | 0 mm | - | 312 W/m² | - |
| 1787778772 | 27.22° C | 58% | 1009 hPa | 0 mm | - | 317 W/m² | - |
| 1787778468 | 26.67° C | 61% | 1009.3 hPa | 0 mm | - | 352 W/m² | - |
| 1787778163 | 26.11° C | 61% | 1009.6 hPa | 0 mm | - | 364 W/m² | - |
| 1787777863 | 26.11° C | 60% | 1009.5 hPa | 0 mm | - | 194 W/m² | - |
| 1787777559 | 26.67° C | 60% | 1009.5 hPa | 0 mm | - | 177 W/m² | - |
| 1787777254 | 26.67° C | 60% | 1009.4 hPa | 0 mm | - | 277 W/m² | - |
| 1787776953 | 26.67° C | 59% | 1009.7 hPa | 0 mm | - | 472 W/m² | - |
| 1787776652 | 26.67° C | 60% | 1009.6 hPa | 0 mm | - | 346 W/m² | - |
| 1787776352 | 27.22° C | 57% | 1009.8 hPa | 0 mm | - | 438 W/m² | - |
| 1787776049 | 26.67° C | 59% | 1009.7 hPa | 0 mm | - | 481 W/m² | - |
| 1787775745 | 27.22° C | 59% | 1010 hPa | 0 mm | - | 189 W/m² | - |
| 1787775444 | 27.22° C | 59% | 1009.9 hPa | 0 mm | - | 538 W/m² | - |
| 1787775142 | 27.22° C | 58% | 1009.9 hPa | 0 mm | - | 160 W/m² | - |
| 1787774843 | 27.22° C | 57% | 1010.2 hPa | 0 mm | - | 495 W/m² | - |
| 1787774542 | 27.78° C | 58% | 1010.2 hPa | 0 mm | - | 525 W/m² | - |
| 1787774241 | 27.78° C | 58% | 1010.1 hPa | 0 mm | - | 549 W/m² | - |
| 1787773941 | 26.67° C | 59% | 1010.3 hPa | 0 mm | - | 586 W/m² | - |
| 1787773640 | 26.67° C | 60% | 1010.3 hPa | 0 mm | - | 189 W/m² | - |
| 1787773336 | 26.67° C | 58% | 1010.3 hPa | 0 mm | - | 210 W/m² | - |
| 1787773031 | 27.22° C | 58% | 1010.3 hPa | 0 mm | - | 525 W/m² | - |
| 1787772726 | 27.22° C | 58% | 1010 hPa | 0 mm | - | 638 W/m² | - |
| 1787772425 | 26.67° C | 59% | 1009.7 hPa | 0 mm | - | 518 W/m² | - |
| 1787772124 | 26.67° C | 59% | 1009.9 hPa | 0 mm | - | 691 W/m² | - |
* Rain latest hour (hover to see other rain measurements)
** Current wind speed in m/s (hover to see current wind gust speed)